DW6455 Weather Reports


Display with metric or nautical units.
time (UTC)temp
F
wind
direction
speed
MPH
gust
MPH
rain 1hr
in
rain 24hr
in
rain mn
in
humidity
%
barometer
mb
20260509072531 55 113 3.0 6.0 0.00 0.00 0.00 51 1028.8
20260509071530 54 113 3.0 6.0 0.00 0.00 0.00 53 1028.9
20260509070530 54 90 2.0 4.0 0.00 0.00 0.00 54 1028.9
20260509065530 53 90 2.0 4.0 0.00 0.00 0.00 53 1029.0
20260509064530 52 90 2.0 6.0 0.00 0.00 0.00 55 1029.0
20260509063530 51 90 1.0 3.0 0.00 0.00 0.00 59 1029.0
20260509062530 51 90 1.0 3.0 0.00 0.00 0.00 61 1029.1
20260509061550 50 68 1.0 3.0 0.00 0.00 0.00 62 1029.0
20260509060530 49 0.0 4.0 0.00 0.00 0.00 65 1029.0
20260509055530 49 90 1.0 3.0 0.00 0.00 0.00 66 1029.0
20260509054530 49 68 1.0 3.0 0.00 0.00 0.00 66 1029.1
20260509053532 50 68 2.0 4.0 0.00 0.00 0.00 66 1029.1
20260509052531 49 68 2.0 4.0 0.00 0.00 0.00 67 1029.1
20260509051531 47 45 2.0 3.0 0.00 0.00 0.00 71 1029.1
20260509050530 45 0.0 2.0 0.00 0.00 0.00 73 1029.1
20260509045530 42 0.0 0.0 0.00 0.00 0.00 77 1029.0
20260509044550 40 0.0 1.0 0.00 0.00 0.00 77 1029.0
20260509043530 39 0.0 0.0 0.00 0.00 0.00 78 1028.9
20260509042530 38 0.0 0.0 0.00 0.00 0.00 78 1028.8
20260509041530 37 0.0 0.0 0.00 0.00 0.00 78 1028.9
20260509040529 36 0.0 0.0 0.00 0.00 0.00 76 1028.8
20260509035530 35 0.0 0.0 0.00 0.00 0.00 75 1028.8
20260509034530 33 0.0 0.0 0.00 0.00 0.00 72 1028.8
20260509033533 32 0.0 0.0 0.00 0.00 0.00 71 1028.8
20260509032530 31 0.0 0.0 0.00 0.00 0.00 69 1028.7
20260509031530 30 0.0 0.0 0.00 0.00 0.00 72 1028.7
20260509030550 29 0.0 0.0 0.00 0.00 0.00 72 1028.7
20260509025530 29 0.0 0.0 0.00 0.00 0.00 73 1028.6
20260509024529 29 0.0 0.0 0.00 0.00 0.00 74 1028.6
20260509023530 29 0.0 0.0 0.00 0.00 0.00 74 1028.6
20260509022530 28 0.0 0.0 0.00 0.00 0.00 74 1028.6
20260509021532 28 0.0 0.0 0.00 0.00 0.00 75 1028.6
20260509020530 28 0.0 0.0 0.00 0.00 0.00 77 1028.6
20260509015551 28 0.0 0.0 0.00 0.00 0.00 78 1028.6
20260509014530 29 0.0 0.0 0.00 0.00 0.00 77 1028.6
20260509013530 29 0.0 0.0 0.00 0.00 0.00 77 1028.6
20260509012550 29 0.0 0.0 0.00 0.00 0.00 78 1028.5
20260509011530 29 0.0 0.0 0.00 0.00 0.00 78 1028.4
20260509010530 29 0.0 1.0 0.00 0.00 0.00 78 1028.3
20260509005530 29 0.0 0.0 0.00 0.00 0.00 79 1028.3
20260509004531 29 0.0 0.0 0.00 0.00 0.00 79 1028.3
20260509003531 29 0.0 0.0 0.00 0.00 0.00 79 1028.3
20260509002530 30 0.0 0.0 0.00 0.00 0.00 79 1028.3
20260509001530 30 0.0 0.0 0.00 0.00 0.00 79 1028.2
20260509000530 30 45 1.0 3.0 0.00 0.00 0.00 79 1028.1
20260508235530 30 0.0 1.0 0.00 0.00 0.00 79 1028.1
20260508234550 30 0.0 0.0 0.00 0.00 0.00 79 1028.1
20260508233551 30 0.0 0.0 0.00 0.00 0.00 79 1028.0
20260508232531 30 0.0 0.0 0.00 0.00 0.00 79 1028.0
20260508231530 31 0.0 0.0 0.00 0.00 0.00 79 1027.9
20260508230530 31 0.0 0.0 0.00 0.00 0.00 78 1027.8
20260508225530 31 0.0 0.0 0.00 0.00 0.00 79 1027.7
20260508224531 31 0.0 0.0 0.00 0.00 0.00 78 1027.7
20260508223530 31 0.0 0.0 0.00 0.00 0.00 77 1027.6
20260508222530 31 0.0 0.0 0.00 0.00 0.00 76 1027.6
20260508221550 32 0.0 0.0 0.00 0.00 0.00 76 1027.6
20260508220551 32 0.0 1.0 0.00 0.00 0.00 75 1027.6
20260508215530 32 0.0 1.0 0.00 0.00 0.00 73 1027.6
20260508214530 33 45 1.0 1.0 0.00 0.00 0.00 73 1027.6
20260508213530 33 0.0 0.0 0.00 0.00 0.00 72 1027.7
20260508212530 34 0.0 0.0 0.00 0.00 0.00 72 1027.7
20260508211530 34 0.0 0.0 0.00 0.00 0.00 70 1027.7
20260508210530 34 0.0 0.0 0.00 0.00 0.00 71 1027.6
20260508205530 34 0.0 0.0 0.00 0.00 0.00 70 1027.5
20260508204550 35 0.0 0.0 0.00 0.00 0.00 68 1027.5
20260508203530 36 0.0 0.0 0.00 0.00 0.00 67 1027.3
20260508202531 37 0.0 0.0 0.00 0.00 0.00 66 1027.3
20260508201530 37 0.0 0.0 0.00 0.00 0.00 64 1027.3
20260508200531 38 0.0 0.0 0.00 0.00 0.00 63 1027.2
20260508195530 38 0.0 0.0 0.00 0.00 0.00 61 1027.0
20260508194530 39 0.0 0.0 0.00 0.00 0.00 63 1027.0
20260508193530 40 0.0 0.0 0.00 0.00 0.00 60 1026.8
20260508192530 41 0.0 0.0 0.00 0.00 0.00 59 1026.7
20260508191530 42 0.0 0.0 0.00 0.00 0.00 58 1026.7
20260508190530 43 0.0 0.0 0.00 0.00 0.00 55 1026.7
20260508185530 44 0.0 0.0 0.00 0.00 0.00 53 1026.6
20260508184530 45 0.0 0.0 0.00 0.00 0.00 51 1026.5
20260508183530 47 0.0 0.0 0.00 0.00 0.00 48 1026.4
20260508182530 48 0.0 0.0 0.00 0.00 0.00 45 1026.4
20260508181530 50 0.0 0.0 0.00 0.00 0.00 39 1026.4
20260508180530 52 0.0 0.0 0.00 0.00 0.00 37 1026.4
20260508175531 53 0.0 1.0 0.00 0.00 0.00 31 1026.3
20260508174530 54 0.0 1.0 0.00 0.00 0.00 29 1026.2
20260508173530 55 45 1.0 4.0 0.00 0.00 0.00 26 1026.1
20260508172531 55 45 2.0 7.0 0.00 0.00 0.00 25 1026.0
20260508171531 55 0 2.0 6.0 0.00 0.00 0.00 26 1026.0
20260508170611 55 0 1.0 6.0 0.00 0.00 0.00 26 1025.8
20260508165530 56 45 1.0 3.0 0.00 0.00 0.00 27 1025.8
20260508164530 57 23 1.0 5.0 0.00 0.00 0.00 25 1025.7
20260508163530 57 0 3.0 7.0 0.00 0.00 0.00 25 1025.6
20260508162530 58 23 5.0 11.0 0.00 0.00 0.00 25 1025.6
20260508161530 57 45 3.0 6.0 0.00 0.00 0.00 25 1025.6
20260508160530 57 45 4.0 10.0 0.00 0.00 0.00 25 1025.4
20260508155550 57 0 2.0 6.0 0.00 0.00 0.00 25 1025.5
20260508154530 57 23 5.0 10.0 0.00 0.00 0.00 25 1025.5
20260508153530 57 0 1.0 4.0 0.00 0.00 0.00 25 1025.5
20260508152530 57 315 3.0 6.0 0.00 0.00 0.00 26 1025.4
20260508151531 57 45 1.0 3.0 0.00 0.00 0.00 26 1025.3
20260508150530 57 293 1.0 7.0 0.00 0.00 0.00 26 1025.3
20260508145530 57 338 2.0 6.0 0.00 0.00 0.00 27 1025.3
20260508144530 57 45 1.0 4.0 0.00 0.00 0.00 26 1025.2
20260508143531 57 338 3.0 8.0 0.00 0.00 0.00 26 1025.2
20260508142610 57 338 2.0 6.0 0.00 0.00 0.00 26 1025.3
20260508141530 57 23 2.0 7.0 0.00 0.00 0.00 26 1025.3
20260508140530 57 293 2.0 9.0 0.00 0.00 0.00 27 1025.4
20260508135530 57 0 3.0 7.0 0.00 0.00 0.00 28 1025.4
20260508134530 57 23 5.0 9.0 0.00 0.00 0.00 25 1025.4
20260508133530 57 0 6.0 11.0 0.00 0.00 0.00 25 1025.5
20260508132530 57 338 3.0 6.0 0.00 0.00 0.00 25 1025.6
20260508131530 57 23 4.0 11.0 0.00 0.00 0.00 27 1025.7
20260508130530 57 45 1.0 3.0 0.00 0.00 0.00 28 1025.7
20260508125530 57 23 4.0 9.0 0.00 0.00 0.00 27 1025.7
20260508124531 56 0 3.0 9.0 0.00 0.00 0.00 29 1025.7
20260508123530 57 338 3.0 9.0 0.00 0.00 0.00 30 1025.7
20260508122530 56 293 2.0 7.0 0.00 0.00 0.00 31 1025.7
20260508121530 56 338 4.0 10.0 0.00 0.00 0.00 30 1025.8
20260508120530 57 338 3.0 7.0 0.00 0.00 0.00 28 1025.8
20260508115531 56 293 3.0 12.0 0.00 0.00 0.00 31 1025.8
20260508114531 56 338 4.0 10.0 0.00 0.00 0.00 31 1025.8
20260508113530 56 23 3.0 8.0 0.00 0.00 0.00 30 1025.8
20260508112530 55 315 4.0 10.0 0.00 0.00 0.00 30 1025.8
20260508111532 56 338 6.0 10.0 0.00 0.00 0.00 31 1025.9
20260508110532 55 0 3.0 8.0 0.00 0.00 0.00 32 1025.8
20260508105532 56 338 7.0 12.0 0.00 0.00 0.00 33 1025.8
20260508104531 55 0 5.0 12.0 0.00 0.00 0.00 32 1025.8
20260508103531 55 0 7.0 11.0 0.00 0.00 0.00 33 1025.8
20260508102530 55 338 7.0 12.0 0.00 0.00 0.00 33 1025.7
20260508101550 55 0 6.0 13.0 0.00 0.00 0.00 34 1025.7
20260508100531 54 0 4.0 13.0 0.00 0.00 0.00 34 1025.6
20260508095531 54 68 4.0 9.0 0.00 0.00 0.00 34 1025.6
20260508094530 53 293 3.0 10.0 0.00 0.00 0.00 38 1025.8
20260508093531 53 45 3.0 9.0 0.00 0.00 0.00 37 1025.6
20260508092611 54 0 5.0 12.0 0.00 0.00 0.00 35 1025.7
20260508091551 54 338 6.0 14.0 0.00 0.00 0.00 38 1025.7
20260508090530 54 315 8.0 12.0 0.00 0.00 0.00 38 1025.8
20260508085530 53 0 5.0 11.0 0.00 0.00 0.00 34 1025.7
20260508084530 53 338 6.0 12.0 0.00 0.00 0.00 40 1025.8
20260508083530 53 315 5.0 11.0 0.00 0.00 0.00 37 1025.7
20260508082530 53 0 8.0 17.0 0.00 0.00 0.00 36 1025.7
20260508081530 53 338 7.0 15.0 0.00 0.00 0.00 36 1025.6
20260508080532 53 0 7.0 17.0 0.00 0.00 0.00 37 1025.6
20260508075533 52 315 4.0 11.0 0.00 0.00 0.00 42 1025.5
20260508074531 52 338 5.0 14.0 0.00 0.00 0.00 42 1025.4
20260508073531 51 338 3.0 9.0 0.00 0.00 0.00 46 1025.4